Location: Peyton Hall Observatory
(40.3466°N, 74.6516°W)
Time: 23:02:07
(UTC-05:00)

ISS - All Passes

Search period start: 26 February 2015 00:00
Search period end: 08 March 2015 00:00
Orbit: 397 x 408 km, 51.6° (Epoch: 26 February)

Date Brightness Start Highest point End Pass type
(mag) Time Alt. Az. Time Alt. Az. Time Alt. Az.
26 Feb - 10:21:50 10° SW 10:24:59 53° SE 10:28:09 10° ENE daylight
26 Feb - 11:58:58 10° WNW 12:01:37 23° NNW 12:04:15 10° NNE daylight
26 Feb - 13:37:46 10° NNW 13:38:57 11° N 13:40:08 10° NNE daylight
26 Feb - 15:14:16 10° NNW 15:16:25 16° NNE 15:18:35 10° ENE daylight
26 Feb - 16:50:05 10° NW 16:53:20 71° NE 16:56:34 10° ESE daylight
26 Feb - 18:28:02 10° WSW 18:29:24 12° SW 18:30:40 10° SSW visible
27 Feb - 09:29:22 10° SSW 09:32:06 26° SE 09:34:53 10° ENE daylight
27 Feb - 11:05:27 10° W 11:08:27 34° NNW 11:11:28 10° NE daylight
27 Feb - 12:44:03 10° NW 12:45:37 13° N 12:47:09 10° NNE daylight
27 Feb - 14:21:28 10° NNW 14:23:06 13° N 14:24:45 10° NE daylight
27 Feb - 15:57:09 10° NW 16:00:13 38° NNE 16:03:18 10° E daylight
27 Feb - 17:33:51 10° WNW 17:36:31 23° SW 17:39:09 10° S daylight
28 Feb - 08:37:26 10° SSE 08:39:03 13° SE 08:40:46 10° E daylight
28 Feb - 10:11:57 10° WSW 10:15:09 62° NNW 10:18:21 10° NE daylight
28 Feb - 11:50:01 10° NW 11:52:04 16° NNW 11:54:06 10° NNE daylight
28 Feb - 13:28:17 10° NNW 13:29:31 12° N 13:30:45 10° NNE daylight
28 Feb - 15:04:04 10° NNW 15:06:47 24° NNE 15:09:32 10° E daylight
28 Feb - 16:40:12 10° WNW 16:43:20 47° SW 16:46:28 10° SSE daylight
01 Mar - 09:18:30 10° SW 09:21:41 65° SE 09:24:54 10° ENE daylight
01 Mar - 10:55:48 10° WNW 10:58:21 21° NNW 11:00:53 10° NNE daylight
01 Mar - 12:34:33 10° NNW 12:35:41 11° N 12:36:48 10° NNE daylight
01 Mar - 14:10:49 10° NNW 14:13:04 17° NNE 14:15:21 10° ENE daylight
01 Mar - 15:46:37 10° NW 15:49:53 83° NE 15:53:06 10° SE daylight
02 Mar - 08:25:14 10° SSW 08:28:06 30° SE 08:31:01 10° ENE daylight
02 Mar - 10:01:32 10° W 10:04:27 31° NNW 10:07:24 10° NE daylight
02 Mar - 11:40:10 10° NW 11:41:37 12° N 11:43:04 10° NNE daylight
02 Mar - 13:17:19 10° NNW 13:19:03 14° NNE 13:20:49 10° NE daylight
02 Mar - 14:52:58 10° NW 14:56:05 43° NNE 14:59:11 10° ESE daylight
02 Mar - 16:29:47 10° W 16:32:16 20° SW 16:34:42 10° S daylight
03 Mar - 07:32:24 10° S 07:34:21 15° SE 07:36:23 10° E daylight
03 Mar - 09:07:16 10° WSW 09:10:26 54° NW 09:13:37 10° NE daylight
03 Mar - 10:45:24 10° NW 10:47:21 15° NNW 10:49:18 10° NNE daylight
03 Mar - 12:23:29 10° NNW 12:24:46 12° N 12:26:03 10° NNE daylight
03 Mar - 13:59:11 10° NW 14:01:58 26° NNE 14:04:47 10° E daylight
03 Mar - 15:35:21 10° WNW 15:38:25 40° SW 15:41:28 10° SSE daylight
04 Mar - 08:13:04 10° SW 08:16:16 74° SE 08:19:30 10° NE daylight
04 Mar - 09:50:27 10° WNW 09:52:56 20° NNW 09:55:23 10° NNE daylight
04 Mar - 11:29:07 10° NNW 11:30:14 11° N 11:31:20 10° NNE daylight
04 Mar - 13:05:13 10° NNW 13:07:34 18° NNE 13:09:55 10° ENE daylight
04 Mar - 14:41:02 10° NW 14:44:16 87° SW 14:47:30 10° SE daylight
05 Mar - 07:19:02 10° SSW 07:21:58 34° SE 07:24:57 10° ENE daylight
05 Mar - 08:55:27 10° W 08:58:20 29° NNW 09:01:13 10° NE daylight
05 Mar - 10:34:05 10° NNW 10:35:28 12° N 10:36:51 10° NNE daylight
05 Mar - 12:11:02 10° NNW 12:12:51 14° NNE 12:14:41 10° NE daylight
05 Mar - 13:46:40 10° NW 13:49:49 47° NNE 13:52:56 10° ESE daylight
05 Mar - 15:23:35 10° W 15:25:55 18° SW 15:28:11 10° S daylight
06 Mar - 06:25:24 10° S 06:27:31 17° SE 06:29:43 10° E daylight
06 Mar - 08:00:26 10° WSW 08:03:35 50° NNW 08:06:46 10° NE daylight
06 Mar - 09:38:36 10° NW 09:40:30 14° NNW 09:42:23 10° NNE daylight
06 Mar - 11:16:33 10° NNW 11:17:52 12° N 11:19:12 10° NNE daylight
06 Mar - 12:52:10 10° NW 12:55:00 27° NNE 12:57:51 10° E daylight
06 Mar - 14:28:21 10° WNW 14:31:23 37° SW 14:34:23 10° SSE daylight
07 Mar - 07:05:31 10° SW 07:08:43 80° SE 07:11:58 10° NE daylight
07 Mar - 08:42:56 10° WNW 08:45:21 19° NNW 08:47:46 10° NNE daylight
07 Mar - 10:21:32 10° NNW 10:22:37 11° N 10:23:44 10° NNE daylight
07 Mar - 11:57:31 10° NNW 11:59:54 19° NNE 12:02:18 10° ENE daylight
07 Mar - 13:33:18 10° NW 13:36:32 82° SW 13:39:46 10° SE daylight
